{"data":{"norad_id":43186,"epoch":"2026-09-19T23:32:27.715776Z","epoch_age_seconds":96435,"freshness":"FRESH","line1":"1 43186U 18014G   26262.98087634  .00002878  00000+0  14724-3 0  9994","line2":"2 43186  97.5248 167.1722 0009539  57.0805 303.1345 15.17414145473136","mean_motion":15.17414145,"eccentricity":0.0009539,"inclination_deg":97.5248,"raan_deg":167.1722,"arg_perigee_deg":57.0805,"mean_anomaly_deg":303.1345,"bstar":0.00014724,"rev_number":47313,"period_min":94.898285003136,"perigee_km":507.08505672558,"apogee_km":520.23322540351,"semimajor_km":6891.7961410645,"source":"CELESTRAK","updated_at":"2026-09-20T09:00:14.307033Z"}}